TimePDT,TemperatureF,Dew PointF,Humidity,Sea Level PressureIn,VisibilityMPH,Wind Direction,Wind SpeedMPH,Gust SpeedMPH,PrecipitationIn,Events,Conditions,WindDirDegrees,DateUTC
12:56 AM,64.0,39.9,41,29.90,10.0,East,8.1,-,N/A,,Clear,90,2013-04-22 07:56:00
1:56 AM,60.1,45.0,57,29.89,10.0,NNE,6.9,-,N/A,,Clear,30,2013-04-22 08:56:00
2:56 AM,57.9,46.9,67,29.88,10.0,SE,5.8,-,N/A,,Clear,130,2013-04-22 09:56:00
3:56 AM,57.9,46.9,67,29.87,10.0,Calm,Calm,-,N/A,,Clear,0,2013-04-22 10:56:00
4:56 AM,57.0,46.0,67,29.88,10.0,Calm,Calm,-,N/A,,Clear,0,2013-04-22 11:56:00
5:56 AM,53.1,43.0,69,29.88,10.0,Calm,Calm,-,N/A,,Clear,0,2013-04-22 12:56:00
6:56 AM,55.0,42.1,62,29.90,10.0,ENE,5.8,-,N/A,,Clear,60,2013-04-22 13:56:00
7:56 AM,64.0,50.0,60,29.91,10.0,Calm,Calm,-,N/A,,Clear,0,2013-04-22 14:56:00
8:56 AM,73.0,51.1,46,29.91,10.0,Calm,Calm,-,N/A,,Clear,0,2013-04-22 15:56:00
9:56 AM,78.1,50.0,37,29.91,10.0,Calm,Calm,-,N/A,,Clear,0,2013-04-22 16:56:00
10:56 AM,84.0,46.0,26,29.91,10.0,Variable,3.5,-,N/A,,Partly Cloudy,0,2013-04-22 17:56:00
11:56 AM,87.1,42.1,21,29.89,10.0,East,8.1,-,N/A,,Partly Cloudy,100,2013-04-22 18:56:00
12:56 PM,88.0,41.0,19,29.85,10.0,Variable,4.6,-,N/A,,Clear,0,2013-04-22 19:56:00
1:56 PM,90.0,37.0,15,29.83,10.0,SE,8.1,-,N/A,,Clear,130,2013-04-22 20:56:00
2:48 PM,91.4,37.4,15,29.75,10.0,SE,5.8,-,N/A,,Partly Cloudy,130,2013-04-22 21:48:00
2:56 PM,91.9,39.9,16,29.79,10.0,ESE,8.1,-,N/A,,Clear,110,2013-04-22 21:56:00
3:56 PM,93.0,37.0,14,29.75,10.0,ESE,8.1,-,N/A,,Clear,120,2013-04-22 22:56:00
4:56 PM,93.9,36.0,13,29.73,10.0,ESE,8.1,-,N/A,,Clear,120,2013-04-22 23:56:00
5:56 PM,93.0,41.0,16,29.73,10.0,SE,6.9,-,N/A,,Clear,140,2013-04-23 00:56:00
6:56 PM,88.0,39.0,18,29.72,10.0,SSW,11.5,-,N/A,,Partly Cloudy,210,2013-04-23 01:56:00
7:56 PM,82.9,36.0,19,29.73,10.0,SW,10.4,-,N/A,,Clear,220,2013-04-23 02:56:00
8:56 PM,80.1,37.9,22,29.76,10.0,WSW,16.1,-,N/A,,Clear,250,2013-04-23 03:56:00
9:56 PM,78.1,37.0,23,29.78,10.0,WSW,20.7,-,N/A,,Clear,240,2013-04-23 04:56:00
10:56 PM,75.9,35.1,23,29.78,10.0,WSW,15.0,-,N/A,,Clear,240,2013-04-23 05:56:00
11:56 PM,75.9,32.0,20,29.78,10.0,WSW,16.1,-,N/A,,Clear,250,2013-04-23 06:56:00